Location: Newark
(27.9675°N, 86.8869°E)
Time: 05:38:28
(UTC+00:00)

Vanguard 2 - Visible Passes

Search period start: 17 October 2019 00:00
Search period end: 27 October 2019 00:00
Orbit: 554 x 2937 km, 32.9° (Epoch: 16 October)

Date Brightness Start Highest point End Pass type
(mag) Time Alt. Az. Time Alt. Az. Time Alt. Az.
17 Oct 9.3 11:44:58 10° SW 11:52:42 66° SSE 12:05:53 10° ENE visible
17 Oct 9.7 13:53:12 10° W 14:03:46 76° N 14:09:05 48° ENE visible
17 Oct 10.5 16:03:07 10° WNW 16:10:28 43° WNW 16:10:28 43° WNW visible
17 Oct12.018:49:54SE18:49:54SE18:11:51WNWvisible
17 Oct 11.1 20:51:19 22° S 20:51:19 22° S 20:55:59 10° SSE visible
18 Oct 9.2 12:02:45 10° WSW 12:10:41 81° SSE 12:24:16 10° ENE visible
18 Oct 9.7 14:11:24 10° W 14:22:15 72° N 14:25:39 58° NE visible
18 Oct 10.8 16:21:20 10° WNW 16:27:02 34° WNW 16:27:02 34° WNW visible
18 Oct 11.2 21:08:23 19° S 21:08:23 19° S 21:12:23 10° S visible
19 Oct 9.2 12:20:41 10° WSW 12:28:49 86° NNW 12:40:49 15° ENE visible
19 Oct 9.7 14:29:36 10° W 14:40:46 72° N 14:42:12 68° NE visible
19 Oct 11.1 16:39:31 10° WNW 16:43:35 26° WNW 16:43:35 26° WNW visible
19 Oct 11.4 21:25:22 14° SSW 21:25:22 14° SSW 21:27:58 10° S visible
20 Oct 9.3 12:38:44 10° W 12:47:05 77° N 12:57:22 21° ENE visible
20 Oct 9.7 14:47:47 10° WNW 14:58:45 73° N 14:58:45 73° N visible
20 Oct 11.3 16:57:40 10° WNW 17:00:07 19° WNW 17:00:07 19° WNW visible
21 Oct 9.4 12:56:50 10° W 13:05:27 71° N 13:13:55 27° ENE visible
21 Oct 9.9 15:05:56 10° WNW 15:15:18 66° NW 15:15:18 66° NW visible
21 Oct 11.5 17:15:53 10° WNW 17:16:41 13° WNW 17:16:41 13° WNW visible
22 Oct 9.4 13:15:00 10° W 13:23:50 69° N 13:30:29 35° ENE visible
22 Oct 10.1 15:24:02 10° WNW 15:31:52 55° WNW 15:31:52 55° WNW visible
23 Oct 9.4 13:33:07 10° WNW 13:42:15 69° N 13:47:05 45° ENE visible
23 Oct 10.4 15:42:08 10° WNW 15:48:28 43° WNW 15:48:28 43° WNW visible
24 Oct 9.0 11:42:45 10° W 11:49:29 70° N 12:01:09 10° ENE visible
24 Oct 9.4 13:51:13 10° WNW 14:00:37 73° N 14:03:42 57° ENE visible
24 Oct 10.7 16:00:15 10° WNW 16:05:05 33° WNW 16:05:05 33° WNW visible
25 Oct 9.0 12:00:52 10° W 12:07:47 65° N 12:18:58 12° ENE visible
25 Oct 9.4 14:09:16 10° WNW 14:18:57 79° NNE 14:20:22 73° ENE visible
25 Oct 11.0 16:18:24 10° WNW 16:21:45 24° W 16:21:45 24° W visible
26 Oct 9.1 12:18:57 10° WNW 12:26:06 65° N 12:35:40 17° E visible
26 Oct 9.4 14:27:18 10° WNW 14:37:04 88° NNW 14:37:04 88° NNW visible
26 Oct 11.3 16:36:42 10° WNW 16:38:28 17° W 16:38:28 17° W visible
